Weather Roundup
Issued by NWS Corpus Christi, TX

Home | Current Version | Previous Version | Text Only | Print | Product List | Glossary On
Versions: 1 2 3 4 5 6 7 8 9 10 11 12 13 14 15 16 17 18 19 20 21 22 23 24 25 26 27 28 29 30 31 32 33 34 35 36 37 38 39 40 41 42 43 44 45 46 47 48 49 50
000
ASUS44 KCRP 171910
HRRCRP

SOUTH TEXAS REGIONAL WEATHER ROUNDUP
NATIONAL WEATHER SERVICE CORPUS CHRISTI TX
200 PM CDT THU APR 17 2014


TXZ229>244-172000-
...CORPUS CHRISTI AREA OBSERVATIONS...

CITY           SKY/WX    TMP DP  RH WIND       PRES   REMARKS
CORPUS CHRISTI PTSUNNY   72  65  78 E16       30.03S
NAS CORPUS CHR CLOUDY    70  66  87 E12       30.03S
ROCKPORT       CLOUDY    71  63  75 SE12      30.04S
KINGSVILLE NAS CLOUDY    76  63  64 E7        30.01S
ALICE          CLOUDY    75  60  59 SE12      30.00F
FALFURRIAS     CLOUDY    77  62  60 E7        30.00S
$$

...VICTORIA AREA OBSERVATIONS...

CITY           SKY/WX    TMP DP  RH WIND       PRES   REMARKS
VICTORIA       CLOUDY    69  59  70 SE10      30.06F
BEEVILLE       CLOUDY    68  67  99 E5        30.05F FOG
PLEASANTON     HVY RAIN  73  57  56 E6        30.05R
SAN ANTONIO    LGT RAIN  65  60  84 E5        30.07F
$$

...LAREDO AREA OBSERVATIONS...

CITY           SKY/WX    TMP DP  RH WIND       PRES   REMARKS
LAREDO         CLOUDY    77  59  53 E10       30.00F
COTULLA        CLOUDY    74  56  53 SE8       30.01F
DEL RIO        PTSUNNY   73  54  51 SE9       30.01R
MCALLEN        CLOUDY    73  63  68 E6        29.98F
HEBBRONVILLE   CLOUDY    74  58  56 E9G17     30.00F
$$

...OTHER TEXAS OBSERVATIONS...

CITY           SKY/WX    TMP DP  RH WIND       PRES   REMARKS
BROWNSVILLE    CLOUDY    73  66  78 NE6       29.98F
HOUSTON        MOSUNNY   72  56  57 E9        30.10F
COL. STATION   CLOUDY    69  57  65 SE9       30.10F
AUSTIN         CLOUDY    65  58  78 E9        30.09F
WACO           CLOUDY    67  56  67 SE12      30.12F
FORT WORTH     DRZL/FOG  60  55  83 SE6       30.15S VSB 1
WICHITA FALLS  CLOUDY    64  50  60 E10       30.11S
LUBBOCK        CLOUDY    57  42  57 NE15G21   30.15R
EL PASO        SUNNY     75  19  12 VRB5      30.07F
$$

...MARINE OBSERVATIONS...

STATION/POSITION TIME  SKY/WX   TEMP    WIND        PRES    VSBY  WAVE   SWELL
                                AIR SEA DIR/SP/G                  HT/PER HT/PER
                 (UTC)          (F)     (DEG/KT/KT) (MB)    (MI)  (FT/S) (FT/S)
PORT ARANSAS     1900            66 67   90/ 12/ 13 1017.2F
BUOY 90 E PORT A NOT AVBL
BUOY 45 SE BAFFI 1900            68 69   60/ 12/ 14 1016.3R         4/ 6   3/ 6
BUOY 200 E PT IS NOT AVBL
BUOY 15 E GALVES 1900            64 66   80/ 16/ 19 1018.4R         5/ 5
$$


USA.gov is the U.S. government's official web portal to all federal, state and local government web resources and services.